Time,TemperatureF,DewpointF,PressureIn,WindDirection,WindDirectionDegrees,WindSpeedMPH,WindSpeedGustMPH,Humidity,HourlyPrecipIn,Conditions,Clouds,dailyrainin,SoftwareType,DateUTC
2013-09-22 00:03:00,37.8,29.6,30.01,SW,233,0.0,0.0,72,0.00,,---,0.00,VWS V13.01,2013-09-22 05:03:00,
2013-09-22 00:08:00,37.8,29.6,30.01,SW,233,0.0,0.0,72,0.00,,---,0.00,VWS V13.01,2013-09-22 05:08:00,
2013-09-22 00:13:00,37.8,29.6,30.01,SW,234,0.0,0.0,72,0.00,,---,0.00,VWS V13.01,2013-09-22 05:13:00,
2013-09-22 00:18:00,37.8,29.6,30.01,SW,234,0.0,0.0,72,0.00,,---,0.00,VWS V13.01,2013-09-22 05:18:00,
2013-09-22 00:23:00,37.6,29.4,30.01,SW,234,0.0,0.0,72,0.00,,---,0.00,VWS V13.01,2013-09-22 05:23:00,
2013-09-22 00:28:00,37.4,29.2,30.04,SW,234,0.0,0.0,72,0.00,,---,0.00,VWS V13.01,2013-09-22 05:28:00,
2013-09-22 00:33:00,37.4,29.2,30.04,SW,233,0.0,0.0,72,0.00,,---,0.00,VWS V13.01,2013-09-22 05:33:00,
2013-09-22 00:38:00,37.2,29.0,30.04,SW,233,0.0,0.0,72,0.00,,---,0.00,VWS V13.01,2013-09-22 05:38:00,
2013-09-22 00:43:00,37.0,29.2,30.04,SW,234,0.0,0.0,73,0.00,,---,0.00,VWS V13.01,2013-09-22 05:43:00,
2013-09-22 00:48:00,37.0,29.2,30.04,SW,233,0.0,0.0,73,0.00,,---,0.00,VWS V13.01,2013-09-22 05:48:00,
2013-09-22 00:53:00,37.0,29.2,30.04,SW,234,0.0,0.0,73,0.00,,---,0.00,VWS V13.01,2013-09-22 05:53:00,
2013-09-22 00:58:00,37.0,29.2,30.04,SW,234,0.0,0.0,73,0.00,,---,0.00,VWS V13.01,2013-09-22 05:58:00,
2013-09-22 01:03:00,36.9,29.0,30.04,SW,234,0.0,0.0,73,0.00,,---,0.00,VWS V13.01,2013-09-22 06:03:00,
2013-09-22 01:08:00,36.9,29.0,30.04,SW,234,0.0,0.0,73,0.00,,---,0.00,VWS V13.01,2013-09-22 06:08:00,
2013-09-22 01:13:00,36.7,28.9,30.04,SW,233,0.0,0.0,73,0.00,,---,0.00,VWS V13.01,2013-09-22 06:13:00,
2013-09-22 01:18:00,36.7,28.9,30.04,SW,234,0.0,0.0,73,0.00,,---,0.00,VWS V13.01,2013-09-22 06:18:00,
2013-09-22 01:23:00,36.5,28.7,30.04,SW,233,0.0,0.0,73,0.00,,---,0.00,VWS V13.01,2013-09-22 06:23:00,
2013-09-22 01:28:00,36.5,28.7,30.04,SW,234,0.0,0.0,73,0.00,,---,0.00,VWS V13.01,2013-09-22 06:28:00,
2013-09-22 01:33:00,36.5,28.7,30.04,SW,234,0.0,0.0,73,0.00,,---,0.00,VWS V13.01,2013-09-22 06:33:00,
2013-09-22 01:38:00,36.3,28.5,30.04,SW,234,0.0,0.0,73,0.00,,---,0.00,VWS V13.01,2013-09-22 06:38:00,
2013-09-22 01:43:00,36.3,28.8,30.04,SW,233,0.0,0.0,74,0.00,,---,0.00,VWS V13.01,2013-09-22 06:43:00,
2013-09-22 01:48:00,36.3,28.8,30.04,SW,234,0.0,0.0,74,0.00,,---,0.00,VWS V13.01,2013-09-22 06:48:00,
2013-09-22 01:53:00,36.1,28.7,30.04,SW,234,0.0,0.0,74,0.00,,---,0.00,VWS V13.01,2013-09-22 06:53:00,
2013-09-22 01:58:00,36.3,28.8,30.04,SW,234,0.0,0.0,74,0.00,,---,0.00,VWS V13.01,2013-09-22 06:58:00,
2013-09-22 02:03:00,36.3,28.8,30.04,SW,233,0.0,0.0,74,0.00,,---,0.00,VWS V13.01,2013-09-22 07:03:00,
2013-09-22 02:08:00,36.1,28.7,30.04,SW,233,0.0,0.0,74,0.00,,---,0.00,VWS V13.01,2013-09-22 07:08:00,
2013-09-22 02:13:00,36.1,28.7,30.04,SW,233,0.0,0.0,74,0.00,,---,0.00,VWS V13.01,2013-09-22 07:13:00,
2013-09-22 02:18:00,36.0,28.5,30.04,SW,233,0.0,0.0,74,0.00,,---,0.00,VWS V13.01,2013-09-22 07:18:00,
2013-09-22 02:23:00,36.0,28.5,30.04,SW,233,0.0,0.0,74,0.00,,---,0.00,VWS V13.01,2013-09-22 07:23:00,
2013-09-22 02:28:00,36.0,28.5,30.04,SW,233,0.0,0.0,74,0.00,,---,0.00,VWS V13.01,2013-09-22 07:28:00,
2013-09-22 02:33:00,35.8,28.3,30.04,SW,234,0.0,0.0,74,0.00,,---,0.00,VWS V13.01,2013-09-22 07:33:00,
2013-09-22 02:38:00,35.8,28.3,30.04,SW,234,0.0,0.0,74,0.00,,---,0.00,VWS V13.01,2013-09-22 07:38:00,
2013-09-22 02:43:00,35.6,28.1,30.04,SW,233,0.0,0.0,74,0.00,,---,0.00,VWS V13.01,2013-09-22 07:43:00,
2013-09-22 02:48:00,35.6,28.1,30.04,SW,234,0.0,0.0,74,0.00,,---,0.00,VWS V13.01,2013-09-22 07:48:00,
2013-09-22 02:53:00,35.6,28.1,30.04,SW,234,0.0,0.0,74,0.00,,---,0.00,VWS V13.01,2013-09-22 07:53:00,
2013-09-22 02:59:00,35.6,28.1,30.04,SW,233,0.0,0.0,74,0.00,,---,0.00,VWS V13.01,2013-09-22 07:59:00,
2013-09-22 03:04:00,35.6,28.1,30.04,SW,233,0.0,0.0,74,0.00,,---,0.00,VWS V13.01,2013-09-22 08:04:00,
2013-09-22 03:09:00,35.6,28.5,30.04,SW,234,0.0,0.0,75,0.00,,---,0.00,VWS V13.01,2013-09-22 08:09:00,
2013-09-22 03:14:00,35.6,28.5,30.04,SW,234,0.0,0.0,75,0.00,,---,0.00,VWS V13.01,2013-09-22 08:14:00,
2013-09-22 03:19:00,35.6,28.5,30.04,SW,233,0.0,0.0,75,0.00,,---,0.00,VWS V13.01,2013-09-22 08:19:00,
2013-09-22 03:24:00,35.6,28.5,30.04,SW,233,0.0,0.0,75,0.00,,---,0.00,VWS V13.01,2013-09-22 08:24:00,
2013-09-22 03:29:00,35.8,28.6,30.04,SW,234,0.0,0.0,75,0.00,,---,0.00,VWS V13.01,2013-09-22 08:29:00,
2013-09-22 03:34:00,35.8,28.6,30.04,SW,233,0.0,0.0,75,0.00,,---,0.00,VWS V13.01,2013-09-22 08:34:00,
2013-09-22 03:39:00,35.6,28.5,30.04,SW,234,0.0,0.0,75,0.00,,---,0.00,VWS V13.01,2013-09-22 08:39:00,
2013-09-22 03:44:00,35.6,28.5,30.04,SW,234,0.0,0.0,75,0.00,,---,0.00,VWS V13.01,2013-09-22 08:44:00,
2013-09-22 03:49:00,35.6,28.5,30.04,SW,233,0.0,0.0,75,0.00,,---,0.00,VWS V13.01,2013-09-22 08:49:00,
2013-09-22 03:54:00,35.6,28.5,30.04,SW,234,0.0,0.0,75,0.00,,---,0.00,VWS V13.01,2013-09-22 08:54:00,
2013-09-22 03:59:00,35.8,28.6,30.04,SW,234,0.0,0.0,75,0.00,,---,0.00,VWS V13.01,2013-09-22 08:59:00,
2013-09-22 04:05:00,35.8,29.0,30.04,SW,233,0.0,0.0,76,0.00,,---,0.00,VWS V13.01,2013-09-22 09:05:00,
2013-09-22 04:10:00,35.8,29.0,30.04,SW,233,0.0,0.0,76,0.00,,---,0.00,VWS V13.01,2013-09-22 09:10:00,
2013-09-22 04:15:00,36.0,29.1,30.04,SW,234,0.0,0.0,76,0.00,,---,0.00,VWS V13.01,2013-09-22 09:15:00,
2013-09-22 04:20:00,36.1,29.3,30.04,SW,233,0.0,0.0,76,0.00,,---,0.00,VWS V13.01,2013-09-22 09:20:00,
2013-09-22 04:25:00,36.1,29.3,30.04,SW,234,0.0,0.0,76,0.00,,---,0.00,VWS V13.01,2013-09-22 09:25:00,
2013-09-22 04:30:00,36.3,29.5,30.04,SW,233,0.0,0.0,76,0.00,,---,0.00,VWS V13.01,2013-09-22 09:30:00,
2013-09-22 04:35:00,36.5,29.7,30.04,SW,234,0.0,0.0,76,0.00,,---,0.00,VWS V13.01,2013-09-22 09:35:00,
2013-09-22 04:40:00,36.5,29.7,30.04,SW,233,0.0,0.0,76,0.00,,---,0.00,VWS V13.01,2013-09-22 09:40:00,
2013-09-22 04:45:00,36.5,29.7,30.04,SW,234,0.0,0.0,76,0.00,,---,0.00,VWS V13.01,2013-09-22 09:45:00,
2013-09-22 04:50:00,36.5,29.7,30.04,SW,234,0.0,0.0,76,0.00,,---,0.00,VWS V13.01,2013-09-22 09:50:00,
2013-09-22 04:55:00,36.5,29.7,30.04,SW,233,0.0,0.0,76,0.00,,---,0.00,VWS V13.01,2013-09-22 09:55:00,
2013-09-22 05:00:00,36.3,29.5,30.07,SW,233,0.0,0.0,76,0.00,,---,0.00,VWS V13.01,2013-09-22 10:00:00,
2013-09-22 05:05:00,36.3,29.5,30.07,SW,233,0.0,0.0,76,0.00,,---,0.00,VWS V13.01,2013-09-22 10:05:00,
2013-09-22 05:10:00,36.3,29.5,30.07,SW,234,0.0,0.0,76,0.00,,---,0.00,VWS V13.01,2013-09-22 10:10:00,
2013-09-22 05:15:00,36.5,30.0,30.04,SW,234,0.0,0.0,77,0.00,,---,0.00,VWS V13.01,2013-09-22 10:15:00,
2013-09-22 05:20:00,36.7,30.2,30.04,SW,234,0.0,0.0,77,0.00,,---,0.00,VWS V13.01,2013-09-22 10:20:00,
2013-09-22 05:25:00,36.7,30.2,30.04,SW,233,0.0,0.0,77,0.00,,---,0.00,VWS V13.01,2013-09-22 10:25:00,
2013-09-22 05:30:00,37.0,30.5,30.04,SW,234,0.0,0.0,77,0.00,,---,0.00,VWS V13.01,2013-09-22 10:30:00,
2013-09-22 05:35:00,37.4,30.9,30.04,SW,234,0.0,0.0,77,0.00,,---,0.00,VWS V13.01,2013-09-22 10:35:00,
2013-09-22 05:40:00,37.4,30.9,30.04,SW,233,0.0,0.0,77,0.00,,---,0.00,VWS V13.01,2013-09-22 10:40:00,
2013-09-22 05:45:00,37.4,30.9,30.07,SW,234,0.0,0.0,77,0.00,,---,0.00,VWS V13.01,2013-09-22 10:45:00,
2013-09-22 05:50:00,37.4,30.9,30.07,SW,233,0.0,0.0,77,0.00,,---,0.00,VWS V13.01,2013-09-22 10:50:00,
2013-09-22 06:06:00,37.4,30.9,30.07,SW,233,0.0,0.0,77,0.00,,---,0.00,VWS V13.01,2013-09-22 11:06:00,
2013-09-22 06:11:00,37.6,31.0,30.07,SW,234,0.0,0.0,77,0.00,,---,0.00,VWS V13.01,2013-09-22 11:11:00,
2013-09-22 06:16:00,37.9,31.4,30.07,SW,234,0.0,0.0,77,0.00,,---,0.00,VWS V13.01,2013-09-22 11:16:00,
2013-09-22 06:21:00,38.1,31.9,30.07,SW,234,0.0,0.0,78,0.00,,---,0.00,VWS V13.01,2013-09-22 11:21:00,
2013-09-22 06:26:00,38.3,32.0,30.07,SW,233,0.0,0.0,78,0.00,,---,0.00,VWS V13.01,2013-09-22 11:26:00,
2013-09-22 06:31:00,38.5,32.2,30.07,SW,234,0.0,0.0,78,0.00,,---,0.00,VWS V13.01,2013-09-22 11:31:00,
2013-09-22 06:36:00,38.5,32.2,30.07,SW,234,0.0,0.0,78,0.00,,---,0.00,VWS V13.01,2013-09-22 11:36:00,
2013-09-22 06:41:00,38.7,32.4,30.07,SW,233,0.0,0.0,78,0.00,,---,0.00,VWS V13.01,2013-09-22 11:41:00,
2013-09-22 06:46:00,38.7,32.4,30.07,SW,233,0.0,0.0,78,0.00,,---,0.00,VWS V13.01,2013-09-22 11:46:00,
2013-09-22 06:51:00,38.5,31.9,30.07,SW,233,0.0,0.0,77,0.00,,---,0.00,VWS V13.01,2013-09-22 11:51:00,
2013-09-22 06:56:00,38.3,31.7,30.07,SW,233,0.0,0.0,77,0.00,,---,0.00,VWS V13.01,2013-09-22 11:56:00,
2013-09-22 07:01:00,38.1,31.6,30.07,SW,233,0.0,0.0,77,0.00,,---,0.00,VWS V13.01,2013-09-22 12:01:00,
2013-09-22 07:06:00,38.1,31.6,30.07,SW,234,0.0,0.0,77,0.00,,---,0.00,VWS V13.01,2013-09-22 12:06:00,
2013-09-22 07:12:00,38.1,31.6,30.07,SW,233,0.0,0.0,77,0.00,,---,0.00,VWS V13.01,2013-09-22 12:12:00,
2013-09-22 07:17:00,38.3,31.7,30.07,SW,234,0.0,0.0,77,0.00,,---,0.00,VWS V13.01,2013-09-22 12:17:00,
2013-09-22 07:22:00,38.3,31.7,30.07,SW,233,0.0,0.0,77,0.00,,---,0.00,VWS V13.01,2013-09-22 12:22:00,
2013-09-22 07:27:00,38.3,31.7,30.07,SW,233,0.0,0.0,77,0.00,,---,0.00,VWS V13.01,2013-09-22 12:27:00,
2013-09-22 07:32:00,38.3,31.7,30.07,SW,233,0.0,0.0,77,0.00,,---,0.00,VWS V13.01,2013-09-22 12:32:00,
2013-09-22 07:37:00,38.5,31.9,30.07,SW,234,0.0,0.0,77,0.00,,---,0.00,VWS V13.01,2013-09-22 12:37:00,
2013-09-22 07:42:00,38.5,32.2,30.07,SW,234,0.0,0.0,78,0.00,,---,0.00,VWS V13.01,2013-09-22 12:42:00,
2013-09-22 07:47:00,38.8,32.6,30.07,SW,233,0.0,0.0,78,0.00,,---,0.00,VWS V13.01,2013-09-22 12:47:00,
2013-09-22 07:52:00,39.2,32.9,30.07,SW,234,0.0,0.0,78,0.00,,---,0.00,VWS V13.01,2013-09-22 12:52:00,
2013-09-22 07:57:00,39.6,33.3,30.07,SW,234,0.0,0.0,78,0.00,,---,0.00,VWS V13.01,2013-09-22 12:57:00,
2013-09-22 08:03:00,39.7,33.5,30.07,SW,234,0.0,0.0,78,0.00,,---,0.00,VWS V13.01,2013-09-22 13:03:00,
2013-09-22 08:08:00,39.9,33.6,30.07,SW,234,0.0,0.0,78,0.00,,---,0.00,VWS V13.01,2013-09-22 13:08:00,
2013-09-22 08:13:00,40.5,34.2,30.07,SW,233,0.0,0.0,78,0.00,,---,0.00,VWS V13.01,2013-09-22 13:13:00,
2013-09-22 08:18:00,40.6,34.3,30.07,SW,234,0.0,0.0,78,0.00,,---,0.00,VWS V13.01,2013-09-22 13:18:00,
2013-09-22 08:23:00,41.2,34.8,30.07,SW,234,0.0,0.0,78,0.00,,---,0.00,VWS V13.01,2013-09-22 13:23:00,
2013-09-22 08:28:00,41.5,35.2,30.10,SW,234,0.0,0.0,78,0.00,,---,0.00,VWS V13.01,2013-09-22 13:28:00,
2013-09-22 08:33:00,42.1,35.7,30.10,SW,233,0.0,0.0,78,0.00,,---,0.00,VWS V13.01,2013-09-22 13:33:00,
2013-09-22 08:38:00,42.4,36.1,30.10,SW,233,0.0,0.0,78,0.00,,---,0.00,VWS V13.01,2013-09-22 13:38:00,
2013-09-22 08:43:00,43.0,36.6,30.10,SW,233,0.0,0.0,78,0.00,,---,0.00,VWS V13.01,2013-09-22 13:43:00,
2013-09-22 08:48:00,43.3,36.6,30.10,SW,234,0.0,0.0,77,0.00,,---,0.00,VWS V13.01,2013-09-22 13:48:00,
2013-09-22 08:53:00,43.5,36.8,30.10,SW,234,0.0,0.0,77,0.00,,---,0.00,VWS V13.01,2013-09-22 13:53:00,
2013-09-22 08:58:00,43.7,36.3,30.10,SW,234,0.0,0.0,75,0.00,,---,0.00,VWS V13.01,2013-09-22 13:58:00,
2013-09-22 09:03:00,43.7,35.6,30.10,SW,234,0.0,0.0,73,0.00,,---,0.00,VWS V13.01,2013-09-22 14:03:00,
2013-09-22 09:09:00,43.9,34.7,30.10,SW,233,0.0,0.0,70,0.00,,---,0.00,VWS V13.01,2013-09-22 14:09:00,
2013-09-22 09:14:00,44.1,34.2,30.10,SW,233,0.0,0.0,68,0.00,,---,0.00,VWS V13.01,2013-09-22 14:14:00,
2013-09-22 09:19:00,44.2,33.2,30.10,SW,233,3.6,4.5,65,0.00,,---,0.00,VWS V13.01,2013-09-22 14:19:00,
2013-09-22 09:24:00,44.6,32.8,30.10,SW,233,0.0,0.0,63,0.00,,---,0.00,VWS V13.01,2013-09-22 14:24:00,
2013-09-22 09:29:00,44.8,32.2,30.10,NNW,340,0.0,0.0,61,0.00,,---,0.00,VWS V13.01,2013-09-22 14:29:00,
2013-09-22 09:34:00,45.1,31.3,30.10,NNW,340,0.0,0.0,58,0.00,,---,0.00,VWS V13.01,2013-09-22 14:34:00,
2013-09-22 09:39:00,45.5,30.3,30.10,NNW,340,0.0,0.0,55,0.00,,---,0.00,VWS V13.01,2013-09-22 14:39:00,
2013-09-22 09:44:00,45.7,30.0,30.10,NNW,340,0.0,0.0,54,0.00,,---,0.00,VWS V13.01,2013-09-22 14:44:00,
2013-09-22 09:49:00,46.0,30.3,30.10,NNW,340,0.0,0.0,54,0.00,,---,0.00,VWS V13.01,2013-09-22 14:49:00,
2013-09-22 09:54:00,46.2,29.6,30.10,SW,236,2.7,2.7,52,0.00,,---,0.00,VWS V13.01,2013-09-22 14:54:00,
2013-09-22 09:59:00,46.4,29.3,30.10,SW,236,0.0,0.0,51,0.00,,---,0.00,VWS V13.01,2013-09-22 14:59:00,
2013-09-22 10:04:00,46.8,30.1,30.10,SW,236,0.0,0.0,52,0.00,,---,0.00,VWS V13.01,2013-09-22 15:04:00,
2013-09-22 10:09:00,47.1,30.4,30.10,SW,236,0.0,0.0,52,0.00,,---,0.00,VWS V13.01,2013-09-22 15:09:00,
2013-09-22 10:14:00,47.5,30.8,30.10,SW,236,0.0,0.0,52,0.00,,---,0.00,VWS V13.01,2013-09-22 15:14:00,
2013-09-22 10:19:00,47.8,31.1,30.10,SW,236,0.0,0.0,52,0.00,,---,0.00,VWS V13.01,2013-09-22 15:19:00,
2013-09-22 10:24:00,48.2,30.9,30.10,SW,236,0.0,0.0,51,0.00,,---,0.00,VWS V13.01,2013-09-22 15:24:00,
2013-09-22 10:29:00,48.7,31.4,30.10,SW,236,0.0,0.0,51,0.00,,---,0.00,VWS V13.01,2013-09-22 15:29:00,
2013-09-22 10:34:00,49.3,31.5,30.10,SW,236,0.0,0.0,50,0.00,,---,0.00,VWS V13.01,2013-09-22 15:34:00,
2013-09-22 10:39:00,49.8,31.4,30.10,SW,236,0.0,0.0,49,0.00,,---,0.00,VWS V13.01,2013-09-22 15:39:00,
2013-09-22 10:44:00,50.2,31.3,30.10,SW,236,0.0,0.0,48,0.00,,---,0.00,VWS V13.01,2013-09-22 15:44:00,
2013-09-22 10:49:00,50.5,31.1,30.10,SW,236,0.0,0.0,47,0.00,,---,0.00,VWS V13.01,2013-09-22 15:49:00,
2013-09-22 10:54:00,50.7,30.7,30.10,SW,236,0.0,2.7,46,0.00,,---,0.00,VWS V13.01,2013-09-22 15:54:00,
2013-09-22 10:59:00,51.1,31.0,30.10,SW,236,0.0,0.0,46,0.00,,---,0.00,VWS V13.01,2013-09-22 15:59:00,
2013-09-22 11:04:00,51.4,31.4,30.10,SW,236,0.0,0.0,46,0.00,,---,0.00,VWS V13.01,2013-09-22 16:04:00,
2013-09-22 11:09:00,51.6,31.5,30.10,SSE,155,4.0,4.5,46,0.00,,---,0.00,VWS V13.01,2013-09-22 16:09:00,
2013-09-22 11:14:00,52.0,29.6,30.10,SSW,197,3.1,3.1,42,0.00,,---,0.00,VWS V13.01,2013-09-22 16:14:00,
2013-09-22 11:19:00,52.3,30.0,30.10,SSE,162,2.7,2.7,42,0.00,,---,0.00,VWS V13.01,2013-09-22 16:19:00,
2013-09-22 11:24:00,52.7,29.7,30.10,South,190,0.0,0.0,41,0.00,,---,0.00,VWS V13.01,2013-09-22 16:24:00,
2013-09-22 11:29:00,52.9,29.2,30.10,SSW,194,0.0,0.0,40,0.00,,---,0.00,VWS V13.01,2013-09-22 16:29:00,
2013-09-22 11:34:00,53.1,28.8,30.10,ESE,116,0.0,0.0,39,0.00,,---,0.00,VWS V13.01,2013-09-22 16:34:00,
2013-09-22 11:39:00,53.1,28.8,30.10,East,101,0.0,3.1,39,0.00,,---,0.00,VWS V13.01,2013-09-22 16:39:00,
2013-09-22 11:45:00,53.2,28.9,30.07,SE,139,0.0,0.0,39,0.00,,---,0.00,VWS V13.01,2013-09-22 16:45:00,
2013-09-22 11:50:00,53.4,29.7,30.07,ENE,63,0.0,0.0,40,0.00,,---,0.00,VWS V13.01,2013-09-22 16:50:00,
2013-09-22 11:55:00,53.8,29.4,30.07,SE,143,0.0,4.5,39,0.00,,---,0.00,VWS V13.01,2013-09-22 16:55:00,
2013-09-22 12:00:00,54.0,29.0,30.07,SE,136,4.5,4.5,38,0.00,,---,0.00,VWS V13.01,2013-09-22 17:00:00,
2013-09-22 12:05:00,54.3,29.3,30.07,SE,146,0.0,0.0,38,0.00,,---,0.00,VWS V13.01,2013-09-22 17:05:00,
2013-09-22 12:10:00,54.5,29.4,30.07,East,84,3.1,4.0,38,0.00,,---,0.00,VWS V13.01,2013-09-22 17:10:00,
2013-09-22 12:15:00,54.5,29.4,30.07,SW,231,3.6,4.7,38,0.00,,---,0.00,VWS V13.01,2013-09-22 17:15:00,
2013-09-22 12:20:00,54.7,29.6,30.07,NNE,23,4.0,4.5,38,0.00,,---,0.00,VWS V13.01,2013-09-22 17:20:00,
2013-09-22 12:25:00,54.9,29.8,30.07,SSE,159,3.1,3.6,38,0.00,,---,0.00,VWS V13.01,2013-09-22 17:25:00,
2013-09-22 12:30:00,55.0,29.3,30.07,SE,140,0.0,0.0,37,0.00,,---,0.00,VWS V13.01,2013-09-22 17:30:00,
2013-09-22 12:35:00,55.2,29.4,30.07,SSE,147,0.0,0.0,37,0.00,,---,0.00,VWS V13.01,2013-09-22 17:35:00,
2013-09-22 12:40:00,55.8,29.9,30.07,WSW,243,3.1,4.5,37,0.00,,---,0.00,VWS V13.01,2013-09-22 17:40:00,
2013-09-22 12:45:00,55.9,30.1,30.07,WSW,243,4.0,4.5,37,0.00,,---,0.00,VWS V13.01,2013-09-22 17:45:00,
2013-09-22 12:50:00,56.3,30.4,30.07,ESE,112,4.5,4.5,37,0.00,,---,0.00,VWS V13.01,2013-09-22 17:50:00,
2013-09-22 12:55:00,56.5,30.5,30.07,ENE,67,4.0,4.0,37,0.00,,---,0.00,VWS V13.01,2013-09-22 17:55:00,
2013-09-22 13:00:00,56.7,30.0,30.07,ENE,71,4.7,4.7,36,0.00,,---,0.00,VWS V13.01,2013-09-22 18:00:00,
2013-09-22 13:05:00,56.5,29.9,30.07,SE,124,2.7,4.0,36,0.00,,---,0.00,VWS V13.01,2013-09-22 18:05:00,
2013-09-22 13:10:00,56.7,30.0,30.07,SE,145,0.0,0.0,36,0.00,,---,0.00,VWS V13.01,2013-09-22 18:10:00,
2013-09-22 13:16:00,57.0,30.4,30.04,South,191,0.0,0.0,36,0.00,,---,0.00,VWS V13.01,2013-09-22 18:16:00,
2013-09-22 13:21:00,57.2,30.5,30.04,ESE,108,2.7,3.6,36,0.00,,---,0.00,VWS V13.01,2013-09-22 18:21:00,
2013-09-22 13:26:00,57.4,30.7,30.04,South,187,2.7,4.5,36,0.00,,---,0.00,VWS V13.01,2013-09-22 18:26:00,
2013-09-22 13:31:00,57.7,31.0,30.04,WSW,256,0.0,0.0,36,0.00,,---,0.00,VWS V13.01,2013-09-22 18:31:00,
2013-09-22 13:36:00,58.1,31.3,30.04,WSW,256,3.6,4.0,36,0.00,,---,0.00,VWS V13.01,2013-09-22 18:36:00,
2013-09-22 13:41:00,58.5,31.6,30.04,SSE,148,3.1,3.1,36,0.00,,---,0.00,VWS V13.01,2013-09-22 18:41:00,
2013-09-22 13:46:00,58.6,31.8,30.04,South,174,4.0,4.7,36,0.00,,---,0.00,VWS V13.01,2013-09-22 18:46:00,
2013-09-22 13:51:00,59.0,31.4,30.04,SE,144,2.7,4.0,35,0.00,,---,0.00,VWS V13.01,2013-09-22 18:51:00,
2013-09-22 13:56:00,59.5,31.9,30.04,East,87,2.7,3.6,35,0.00,,---,0.00,VWS V13.01,2013-09-22 18:56:00,
2013-09-22 14:01:00,59.9,32.2,30.04,East,100,0.0,3.6,35,0.00,,---,0.00,VWS V13.01,2013-09-22 19:01:00,
2013-09-22 14:06:00,60.1,32.4,30.04,ESE,105,0.0,3.6,35,0.00,,---,0.00,VWS V13.01,2013-09-22 19:06:00,
2013-09-22 14:11:00,60.3,32.5,30.04,NNE,19,0.0,0.0,35,0.00,,---,0.00,VWS V13.01,2013-09-22 19:11:00,
2013-09-22 14:16:00,60.1,32.4,30.04,NE,47,0.0,0.0,35,0.00,,---,0.00,VWS V13.01,2013-09-22 19:16:00,
2013-09-22 14:21:00,60.1,32.4,30.04,NE,54,0.0,3.1,35,0.00,,---,0.00,VWS V13.01,2013-09-22 19:21:00,
2013-09-22 14:26:00,59.7,32.0,30.04,ENE,71,0.0,3.1,35,0.00,,---,0.00,VWS V13.01,2013-09-22 19:26:00,
2013-09-22 14:31:00,59.7,32.0,30.04,SE,144,0.0,3.6,35,0.00,,---,0.00,VWS V13.01,2013-09-22 19:31:00,
2013-09-22 14:36:00,59.7,32.0,30.04,ESE,116,4.0,4.0,35,0.00,,---,0.00,VWS V13.01,2013-09-22 19:36:00,
2013-09-22 14:41:00,59.9,32.9,30.04,ESE,105,2.7,2.7,36,0.00,,---,0.00,VWS V13.01,2013-09-22 19:41:00,
2013-09-22 14:46:00,60.4,32.7,30.01,SW,229,0.0,3.1,35,0.00,,---,0.00,VWS V13.01,2013-09-22 19:46:00,
2013-09-22 14:52:00,60.6,32.8,30.01,SW,229,2.7,3.6,35,0.00,,---,0.00,VWS V13.01,2013-09-22 19:52:00,
2013-09-22 14:57:00,61.0,33.2,30.01,SW,229,0.0,0.0,35,0.00,,---,0.00,VWS V13.01,2013-09-22 19:57:00,
2013-09-22 15:02:00,61.0,32.4,30.01,NE,38,5.1,5.1,34,0.00,,---,0.00,VWS V13.01,2013-09-22 20:02:00,
2013-09-22 15:07:00,60.4,32.7,30.01,NNE,27,3.1,5.1,35,0.00,,---,0.00,VWS V13.01,2013-09-22 20:07:00,
2013-09-22 15:12:00,60.1,32.4,30.01,NE,55,3.6,3.6,35,0.00,,---,0.00,VWS V13.01,2013-09-22 20:12:00,
2013-09-22 15:17:00,59.7,32.0,30.01,North,9,3.6,5.6,35,0.00,,---,0.00,VWS V13.01,2013-09-22 20:17:00,
2013-09-22 15:22:00,59.2,32.3,30.01,ENE,61,3.1,4.7,36,0.00,,---,0.00,VWS V13.01,2013-09-22 20:22:00,
2013-09-22 15:27:00,58.8,32.6,30.01,East,87,4.0,4.0,37,0.00,,---,0.00,VWS V13.01,2013-09-22 20:27:00,
2013-09-22 15:32:00,58.6,32.5,30.01,ENE,72,3.1,4.5,37,0.00,,---,0.00,VWS V13.01,2013-09-22 20:32:00,
2013-09-22 15:37:00,58.5,32.3,30.01,ENE,61,4.0,4.0,37,0.00,,---,0.00,VWS V13.01,2013-09-22 20:37:00,
2013-09-22 15:42:00,58.1,32.0,30.01,NE,47,3.6,4.0,37,0.00,,---,0.00,VWS V13.01,2013-09-22 20:42:00,
2013-09-22 15:47:00,57.9,32.5,30.01,ENE,72,3.6,4.0,38,0.00,,---,0.00,VWS V13.01,2013-09-22 20:47:00,
2013-09-22 15:52:00,57.7,32.3,30.01,ESE,118,0.0,0.0,38,0.00,,---,0.00,VWS V13.01,2013-09-22 20:52:00,
2013-09-22 15:57:00,57.6,32.8,30.01,ENE,62,2.7,2.7,39,0.00,,---,0.00,VWS V13.01,2013-09-22 20:57:00,
2013-09-22 16:02:00,57.6,32.8,30.01,ENE,74,3.6,3.6,39,0.00,,---,0.00,VWS V13.01,2013-09-22 21:02:00,
2013-09-22 16:07:00,57.4,32.0,30.01,NE,43,4.0,4.7,38,0.00,,---,0.00,VWS V13.01,2013-09-22 21:07:00,
2013-09-22 16:12:00,57.0,32.3,30.01,NE,55,2.7,5.6,39,0.00,,---,0.00,VWS V13.01,2013-09-22 21:12:00,
2013-09-22 16:17:00,56.8,32.8,30.01,NNE,32,4.7,4.7,40,0.00,,---,0.00,VWS V13.01,2013-09-22 21:17:00,
2013-09-22 16:22:00,56.5,32.5,30.01,NE,44,3.1,3.6,40,0.00,,---,0.00,VWS V13.01,2013-09-22 21:22:00,
2013-09-22 16:27:00,56.1,32.8,30.01,East,81,3.6,4.5,41,0.00,,---,0.00,VWS V13.01,2013-09-22 21:27:00,
2013-09-22 16:32:00,55.4,32.1,30.01,NE,47,0.0,5.1,41,0.00,,---,0.00,VWS V13.01,2013-09-22 21:32:00,
2013-09-22 16:37:00,55.0,33.5,30.01,NE,42,4.7,4.7,44,0.00,,---,0.00,VWS V13.01,2013-09-22 21:37:00,
2013-09-22 16:42:00,54.5,33.0,30.01,East,96,2.7,3.6,44,0.00,,---,0.00,VWS V13.01,2013-09-22 21:42:00,
2013-09-22 16:47:00,54.3,33.5,30.01,NE,52,5.1,5.6,45,0.00,,---,0.00,VWS V13.01,2013-09-22 21:47:00,
2013-09-22 16:52:00,54.1,33.3,30.01,NE,46,5.6,5.6,45,0.00,,---,0.00,VWS V13.01,2013-09-22 21:52:00,
2013-09-22 16:57:00,54.1,33.8,30.01,ENE,73,0.0,3.1,46,0.00,,---,0.00,VWS V13.01,2013-09-22 21:57:00,
2013-09-22 17:02:00,54.0,33.7,30.01,NE,56,4.0,4.0,46,0.00,,---,0.00,VWS V13.01,2013-09-22 22:02:00,
2013-09-22 17:07:00,54.0,34.2,30.01,East,87,0.0,5.1,47,0.00,,---,0.00,VWS V13.01,2013-09-22 22:07:00,
2013-09-22 17:12:00,54.0,34.2,30.01,ENE,59,4.0,4.0,47,0.00,,---,0.00,VWS V13.01,2013-09-22 22:12:00,
2013-09-22 17:17:00,53.8,34.0,30.01,NE,51,3.6,4.5,47,0.00,,---,0.00,VWS V13.01,2013-09-22 22:17:00,
2013-09-22 17:22:00,53.6,33.9,30.01,ENE,60,4.0,5.6,47,0.00,,---,0.00,VWS V13.01,2013-09-22 22:22:00,
2013-09-22 17:27:00,53.4,34.2,30.01,East,81,3.6,5.1,48,0.00,,---,0.00,VWS V13.01,2013-09-22 22:27:00,
2013-09-22 17:32:00,53.4,34.2,30.01,ENE,58,3.6,3.6,48,0.00,,---,0.00,VWS V13.01,2013-09-22 22:32:00,
2013-09-22 17:37:00,53.2,34.6,30.01,ENE,70,0.0,4.0,49,0.00,,---,0.00,VWS V13.01,2013-09-22 22:37:00,
2013-09-22 17:42:00,53.2,34.6,29.98,ENE,78,0.0,4.5,49,0.00,,---,0.00,VWS V13.01,2013-09-22 22:42:00,
2013-09-22 17:47:00,53.1,34.9,29.98,ENE,74,0.0,0.0,50,0.00,,---,0.00,VWS V13.01,2013-09-22 22:47:00,
2013-09-22 17:52:00,53.1,34.9,29.98,ENE,57,4.7,4.7,50,0.00,,---,0.00,VWS V13.01,2013-09-22 22:52:00,
2013-09-22 17:57:00,53.1,35.4,30.01,North,9,3.1,4.5,51,0.00,,---,0.00,VWS V13.01,2013-09-22 22:57:00,
2013-09-22 18:02:00,52.9,35.3,30.01,ENE,61,3.6,4.7,51,0.00,,---,0.00,VWS V13.01,2013-09-22 23:02:00,
2013-09-22 18:07:00,52.9,35.3,30.01,ENE,72,2.7,2.7,51,0.00,,---,0.00,VWS V13.01,2013-09-22 23:07:00,
2013-09-22 18:12:00,52.7,35.6,29.98,ENE,77,3.1,4.0,52,0.00,,---,0.00,VWS V13.01,2013-09-22 23:12:00,
2013-09-22 18:17:00,52.5,35.9,29.98,ENE,70,2.7,3.1,53,0.00,,---,0.00,VWS V13.01,2013-09-22 23:17:00,
2013-09-22 18:23:00,52.5,35.9,29.98,ENE,70,0.0,2.7,53,0.00,,---,0.00,VWS V13.01,2013-09-22 23:23:00,
2013-09-22 18:28:00,52.3,36.2,29.98,ENE,61,3.6,3.6,54,0.00,,---,0.00,VWS V13.01,2013-09-22 23:28:00,
2013-09-22 18:33:00,52.3,36.2,29.98,ENE,64,3.1,3.6,54,0.00,,---,0.00,VWS V13.01,2013-09-22 23:33:00,
2013-09-22 18:38:00,52.2,36.5,29.98,ENE,65,3.1,4.0,55,0.00,,---,0.00,VWS V13.01,2013-09-22 23:38:00,
2013-09-22 18:43:00,52.0,36.8,29.98,ENE,69,3.6,3.6,56,0.00,,---,0.00,VWS V13.01,2013-09-22 23:43:00,
2013-09-22 18:48:00,51.8,37.1,29.98,NE,45,4.0,4.0,57,0.00,,---,0.00,VWS V13.01,2013-09-22 23:48:00,
2013-09-22 18:53:00,51.6,37.3,29.98,ENE,69,4.0,4.0,58,0.00,,---,0.00,VWS V13.01,2013-09-22 23:53:00,
2013-09-22 18:58:00,51.6,37.8,29.98,ENE,67,3.1,3.1,59,0.00,,---,0.00,VWS V13.01,2013-09-22 23:58:00,
2013-09-22 19:03:00,51.4,38.0,29.98,ENE,57,3.6,4.0,60,0.00,,---,0.00,VWS V13.01,2013-09-23 00:03:00,
2013-09-22 19:08:00,51.3,37.9,29.98,ENE,60,3.6,3.6,60,0.00,,---,0.00,VWS V13.01,2013-09-23 00:08:00,
2013-09-22 19:13:00,51.1,38.1,29.98,ENE,71,3.1,4.0,61,0.00,,---,0.00,VWS V13.01,2013-09-23 00:13:00,
2013-09-22 19:18:00,50.9,38.4,29.98,ENE,69,3.1,3.6,62,0.00,,---,0.00,VWS V13.01,2013-09-23 00:18:00,
2013-09-22 19:23:00,50.7,38.6,29.98,ENE,70,0.0,0.0,63,0.00,,---,0.00,VWS V13.01,2013-09-23 00:23:00,
2013-09-22 19:28:00,50.7,39.0,29.98,ENE,71,0.0,0.0,64,0.00,,---,0.00,VWS V13.01,2013-09-23 00:28:00,
2013-09-22 19:33:00,50.5,39.2,29.98,ENE,71,0.0,0.0,65,0.00,,---,0.00,VWS V13.01,2013-09-23 00:33:00,
2013-09-22 19:38:00,50.4,39.5,29.98,ENE,71,0.0,0.0,66,0.00,,---,0.00,VWS V13.01,2013-09-23 00:38:00,
2013-09-22 19:43:00,50.2,39.3,29.98,ENE,71,0.0,0.0,66,0.00,,---,0.00,VWS V13.01,2013-09-23 00:43:00,
2013-09-22 19:48:00,50.2,39.7,29.98,ENE,71,0.0,0.0,67,0.00,,---,0.00,VWS V13.01,2013-09-23 00:48:00,
2013-09-22 19:53:00,50.2,40.0,29.98,ENE,71,0.0,0.0,68,0.00,,---,0.00,VWS V13.01,2013-09-23 00:53:00,
2013-09-22 19:58:00,50.2,40.0,30.01,ENE,71,0.0,0.0,68,0.00,,---,0.00,VWS V13.01,2013-09-23 00:58:00,
2013-09-22 20:03:00,50.2,40.4,30.01,ENE,71,0.0,0.0,69,0.00,,---,0.00,VWS V13.01,2013-09-23 01:03:00,
2013-09-22 20:08:00,50.0,40.2,30.01,ENE,71,0.0,0.0,69,0.00,,---,0.00,VWS V13.01,2013-09-23 01:08:00,
2013-09-22 20:13:00,49.8,40.1,30.01,ENE,71,0.0,0.0,69,0.00,,---,0.00,VWS V13.01,2013-09-23 01:13:00,
2013-09-22 20:18:00,49.6,40.3,30.01,ENE,71,0.0,0.0,70,0.00,,---,0.00,VWS V13.01,2013-09-23 01:18:00,
2013-09-22 20:23:00,49.5,40.1,30.01,ENE,71,0.0,0.0,70,0.00,,---,0.00,VWS V13.01,2013-09-23 01:23:00,
2013-09-22 20:29:00,49.3,39.9,30.01,ENE,71,0.0,0.0,70,0.00,,---,0.00,VWS V13.01,2013-09-23 01:29:00,
2013-09-22 20:34:00,49.3,40.3,30.01,ENE,71,0.0,0.0,71,0.00,,---,0.00,VWS V13.01,2013-09-23 01:34:00,
2013-09-22 20:39:00,49.1,40.1,30.01,ENE,71,0.0,0.0,71,0.00,,---,0.00,VWS V13.01,2013-09-23 01:39:00,
2013-09-22 20:44:00,48.9,40.3,30.01,ENE,71,0.0,0.0,72,0.00,,---,0.00,VWS V13.01,2013-09-23 01:44:00,
2013-09-22 20:49:00,48.7,40.1,30.01,ENE,71,0.0,0.0,72,0.00,,---,0.00,VWS V13.01,2013-09-23 01:49:00,
2013-09-22 20:54:00,48.6,40.0,30.01,ENE,71,0.0,0.0,72,0.00,,---,0.00,VWS V13.01,2013-09-23 01:54:00,
2013-09-22 20:59:00,48.4,39.8,30.01,ENE,71,0.0,0.0,72,0.00,,---,0.00,VWS V13.01,2013-09-23 01:59:00,
2013-09-22 21:04:00,48.0,39.4,30.01,ENE,71,0.0,0.0,72,0.00,,---,0.00,VWS V13.01,2013-09-23 02:04:00,
2013-09-22 21:09:00,48.0,39.4,30.01,ENE,71,0.0,0.0,72,0.00,,---,0.00,VWS V13.01,2013-09-23 02:09:00,
2013-09-22 21:14:00,47.8,39.6,30.01,ENE,71,0.0,0.0,73,0.00,,---,0.00,VWS V13.01,2013-09-23 02:14:00,
2013-09-22 21:19:00,47.8,39.6,30.01,ENE,71,0.0,0.0,73,0.00,,---,0.00,VWS V13.01,2013-09-23 02:19:00,
2013-09-22 21:24:00,47.7,39.4,30.01,ENE,71,0.0,0.0,73,0.00,,---,0.00,VWS V13.01,2013-09-23 02:24:00,
2013-09-22 21:29:00,47.7,39.4,30.01,ENE,71,0.0,0.0,73,0.00,,---,0.00,VWS V13.01,2013-09-23 02:29:00,
2013-09-22 21:34:00,47.3,39.1,30.01,ENE,71,0.0,0.0,73,0.00,,---,0.00,VWS V13.01,2013-09-23 02:34:00,
2013-09-22 21:39:00,47.3,39.1,30.01,ENE,71,0.0,0.0,73,0.00,,---,0.00,VWS V13.01,2013-09-23 02:39:00,
2013-09-22 21:44:00,47.1,38.9,30.01,ENE,71,0.0,0.0,73,0.00,,---,0.00,VWS V13.01,2013-09-23 02:44:00,
2013-09-22 21:49:00,46.9,38.8,30.01,ENE,71,0.0,0.0,73,0.00,,---,0.00,VWS V13.01,2013-09-23 02:49:00,
2013-09-22 21:55:00,46.8,38.6,30.01,ENE,71,0.0,0.0,73,0.00,,---,0.00,VWS V13.01,2013-09-23 02:55:00,
2013-09-22 22:00:00,46.6,38.4,30.01,ENE,71,0.0,0.0,73,0.00,,---,0.00,VWS V13.01,2013-09-23 03:00:00,
2013-09-22 22:05:00,46.4,38.2,30.01,ENE,71,0.0,0.0,73,0.00,,---,0.00,VWS V13.01,2013-09-23 03:05:00,
2013-09-22 22:10:00,46.4,38.2,30.01,ENE,71,0.0,0.0,73,0.00,,---,0.00,VWS V13.01,2013-09-23 03:10:00,
2013-09-22 22:15:00,46.2,38.1,30.01,ENE,71,0.0,0.0,73,0.00,,---,0.00,VWS V13.01,2013-09-23 03:15:00,
2013-09-22 22:20:00,46.0,37.9,30.01,ENE,71,0.0,0.0,73,0.00,,---,0.00,VWS V13.01,2013-09-23 03:20:00,
2013-09-22 22:25:00,45.9,37.7,30.01,ENE,71,0.0,0.0,73,0.00,,---,0.00,VWS V13.01,2013-09-23 03:25:00,
2013-09-22 22:31:00,45.9,37.7,30.01,ENE,71,0.0,0.0,73,0.00,,---,0.00,VWS V13.01,2013-09-23 03:31:00,
2013-09-22 22:36:00,45.7,37.5,30.01,ENE,71,0.0,0.0,73,0.00,,---,0.00,VWS V13.01,2013-09-23 03:36:00,
2013-09-22 22:41:00,45.5,37.4,30.01,ENE,71,0.0,0.0,73,0.00,,---,0.00,VWS V13.01,2013-09-23 03:41:00,
2013-09-22 22:46:00,45.5,37.4,30.01,ENE,71,0.0,0.0,73,0.00,,---,0.00,VWS V13.01,2013-09-23 03:46:00,
2013-09-22 22:51:00,45.3,37.2,30.01,ENE,71,0.0,0.0,73,0.00,,---,0.00,VWS V13.01,2013-09-23 03:51:00,
2013-09-22 22:56:00,45.3,37.2,30.01,ENE,71,0.0,0.0,73,0.00,,---,0.00,VWS V13.01,2013-09-23 03:56:00,
2013-09-22 23:01:00,45.3,37.2,30.01,ENE,71,0.0,0.0,73,0.00,,---,0.00,VWS V13.01,2013-09-23 04:01:00,
2013-09-22 23:02:00,45.3,37.2,30.01,ENE,71,0.0,0.0,73,0.00,,---,0.00,VWS V13.01,2013-09-23 04:02:00,
2013-09-22 23:07:00,45.3,37.2,30.01,ENE,71,0.0,0.0,73,0.00,,---,0.00,VWS V13.01,2013-09-23 04:07:00,
2013-09-22 23:12:00,45.3,37.2,30.01,ENE,71,0.0,0.0,73,0.00,,---,0.00,VWS V13.01,2013-09-23 04:12:00,
2013-09-22 23:17:00,45.3,37.5,30.01,ENE,71,0.0,0.0,74,0.00,,---,0.00,VWS V13.01,2013-09-23 04:17:00,
2013-09-22 23:22:00,45.3,37.5,30.01,ENE,71,0.0,0.0,74,0.00,,---,0.00,VWS V13.01,2013-09-23 04:22:00,
2013-09-22 23:27:00,45.3,37.5,30.01,ENE,71,0.0,0.0,74,0.00,,---,0.00,VWS V13.01,2013-09-23 04:27:00,
2013-09-22 23:32:00,45.5,37.7,30.01,ENE,71,0.0,0.0,74,0.00,,---,0.00,VWS V13.01,2013-09-23 04:32:00,
2013-09-22 23:37:00,45.5,37.7,30.01,ENE,71,0.0,0.0,74,0.00,,---,0.00,VWS V13.01,2013-09-23 04:37:00,
2013-09-22 23:42:00,45.5,37.7,30.01,ENE,71,0.0,0.0,74,0.00,,---,0.00,VWS V13.01,2013-09-23 04:42:00,
2013-09-22 23:47:00,45.7,37.9,30.01,ENE,71,0.0,0.0,74,0.00,,---,0.00,VWS V13.01,2013-09-23 04:47:00,
2013-09-22 23:52:00,45.9,38.0,30.01,ENE,71,0.0,0.0,74,0.00,,---,0.00,VWS V13.01,2013-09-23 04:52:00,
2013-09-22 23:57:00,45.9,38.0,30.01,ENE,71,0.0,0.0,74,0.00,,---,0.00,VWS V13.01,2013-09-23 04:57:00,